Terminal Aerodrome Forecast
Issued by NWS

Home | Current Version | Previous Version | Text Only | Print | Product List | Glossary On
Versions: 1 2 3 4 5 6 7 8 9 10 11 12 13 14 15 16 17 18 19 20 21 22 23 24 25 26 27 28 29 30 31 32 33
000
FTUS44 KLUB 241700
TAFCDS
TAF
KCDS 241729Z 2418/2518 18010KT P6SM SCT020 OVC025
     FM242000 17013KT P6SM SCT035 SCT120
     FM250100 16009KT P6SM FEW030 SCT100
     FM251300 20007KT P6SM SCT040=

USA.gov is the U.S. government's official web portal to all federal, state and local government web resources and services.